Location: York
(31.8935°S, 116.7682°E)
Time: 10:31:44
(UTC+08:00)

deb Explorer IX - Pass Details

Date: 03 October 2022
Orbit: 533 x 1057 km, 38.8° (Epoch: 01 December)

Event Time Altitude Azimuth Distance (km) Brightness Sun altitude
Rises 22:37:23 0° 246° (WSW) 3,168 ? -48.8°
Enters shadow 22:37:39 - 246° (WSW) 3,065 ? -48.8°
Reaches altitude 10° 22:40:00 10° 243° (WSW) 2,155 - -49.1°
Maximum altitude 22:44:55 64° 161° (SSE) 692 - -49.6°
Drops below altitude 10° 22:49:12 10° 78° (ENE) 1,884 - -50.1°
Sets 22:51:22 0° 75° (ENE) 2,735 - -50.3°
